Location: Campalano
(45.1667°N, 11.0833°E)
Time: 18:15:40
(UTC+00:00)

Daily predictions for brighter satellites

Satellite Brightness Start Highest point End
(mag) Time Altitude Azimuth Time Altitude Azimuth Time Altitude Azimuth
Cosmos 1606 Rocket 4.1 16:39:23 10° NNW 16:43:45 65° W 16:48:08 10° S
Cosmos 1844 3.9 16:38:21 10° S 16:43:49 53° ESE 16:49:23 10° NE
Cosmos 2082 Rocket 4.0 16:41:52 10° NNE 16:44:15 12° NE 16:46:36 10° ENE
YAOGAN 1 4.0 16:45:12 10° ESE 16:48:05 18° ENE 16:50:58 10° NNE
Cosmos 1892 Rocket 3.5 16:44:13 10° S 16:48:33 87° E 16:52:55 10° N
CZ-3B R/B 2.6 16:46:29 10° NNW 16:48:41 29° NE 16:53:29 10° E
BREEZE-M DEB (TANK) 4.1 16:45:23 10° WNW 16:48:56 33° SW 16:51:05 10° SSE
Cosmos 1844 Rocket 2.7 16:44:02 10° SSW 16:49:40 73° ESE 16:55:19 10° NNE
Okean O Rocket 1.6 16:45:36 10° SSE 16:50:02 81° ENE 16:54:28 10° NNW
Aureole 3 Rocket 4.3 16:48:49 10° NE 16:50:06 12° ENE 16:51:27 10° E
USA 234 4.3 16:45:57 10° NE 16:51:36 32° N 16:57:16 10° WNW
Aureole 3 3.4 16:48:54 10° N 16:51:47 30° ENE 16:54:29 10° SE
SJ 16-02 1.4 16:47:31 10° S 16:51:52 66° ESE 16:56:15 10° NNE
Okean-O 3.8 16:53:02 10° ESE 16:56:27 22° ENE 16:59:53 10° NNE
Cosmos 923 Rocket 4.1 16:54:45 10° NNW 17:00:03 62° ENE 17:05:18 10° SSE
Cosmos 489 Rocket 4.5 16:53:59 10° NNW 17:00:22 75° ENE 17:06:41 10° SSE
Cosmos 1812 Rocket 4.4 16:57:07 10° NNE 17:00:53 27° ENE 17:04:37 10° SE
ISS -3.0 16:57:43 10° W 17:01:00 45° NNW 17:04:02 12° NE
Cosmos 1898 Rocket 4.1 16:56:58 10° SSE 17:01:42 35° ESE 17:06:26 10° NE
NOSS 2-1 (E) 3.8 16:59:51 10° S 17:02:51 31° ESE 17:05:28 13° ENE
Aureole 2 Rocket 3.5 17:01:44 10° SW 17:04:36 39° WNW 17:07:34 10° N
Cosmos 1680 Rocket 3.6 17:00:22 10° NNW 17:05:30 52° ENE 17:10:34 10° SE
SKYMED 2 3.8 17:03:57 10° NNE 17:08:11 49° E 17:12:23 10° S
ATLAS 5 CENTAUR R/B 3.8 17:07:19 10° WNW 17:10:06 16° NNW 17:13:07 10° NNE
Cosmos 2278 Rocket 3.4 17:08:02 10° SSE 17:12:10 21° E 17:15:21 14° ENE
Meteor 2-13 Rocket 4.4 17:08:54 10° S 17:15:00 78° E 17:21:10 10° NNE
CSL-04 DEB 4.3 17:11:11 10° NNE 17:15:21 80° ESE 17:19:23 10° SSW
CZ-4B R/B 4.2 17:11:19 10° S 17:16:45 54° W 17:22:18 10° NNW
H-2A R/B 4.4 17:13:06 10° SSW 17:16:50 34° W 17:20:45 10° NNW
Aureole 1 4.5 17:16:37 10° NNW 17:19:37 70° WSW 17:22:54 10° SSE
Cosmos 1092 Rocket 4.1 17:14:17 10° SSE 17:20:16 54° E 17:26:15 10° NNE
Helios 1A Rocket 3.9 17:16:58 10° SE 17:20:26 27° ENE 17:23:57 10° N
H-2A R/B 2.5 17:16:22 10° SE 17:20:59 38° ENE 17:25:44 10° N
Cosmos 1328 4.2 17:19:09 10° SSE 17:22:54 40° E 17:26:38 10° NNE
Cosmos 44 3.3 17:18:32 10° SSW 17:23:18 80° ESE 17:28:09 11° NE
IRS-1C Rocket 4.0 17:20:45 10° SSE 17:25:56 65° ENE 17:31:09 10° N
Cosmos 2058 Rocket 4.3 17:22:14 10° NNW 17:26:34 47° W 17:30:53 10° SSW
Cosmos 1937 Rocket 3.8 17:24:02 10° S 17:29:02 45° ESE 17:34:00 11° NNE
Nadezhda 4 Rocket 4.2 17:26:03 10° SSW 17:32:16 77° W 17:38:29 10° N
X-37B 0.5 17:29:08 10° W 17:32:19 89° NW 17:33:45 30° E
ERS-2 2.3 17:28:51 10° NNE 17:32:22 48° E 17:35:53 10° S
Cosmos 1340 2.7 17:29:19 10° S 17:32:59 55° E 17:36:40 10° NNE
Cosmos 1939 Rocket 3.7 17:31:06 10° S 17:35:07 55° W 17:39:07 10° NNW
CZ-2D R/B 3.3 17:33:01 10° S 17:36:52 79° W 17:40:43 10° NNW
Cosmos 1626 Rocket 3.6 17:32:52 10° S 17:37:16 83° W 17:41:44 10° N
NOSS 3-1 (C) 4.0 17:30:33 10° NW 17:38:04 78° NE 17:46:46 10° SE
Cosmos 1455 3.1 17:34:42 10° NNW 17:38:26 51° W 17:42:09 10° S
CZ-4B R/B 2.1 17:38:41 10° N 17:41:57 52° WNW 17:45:06 10° SSW
ARGOS 3.4 17:38:52 10° SE 17:43:55 44° ENE 17:49:01 10° N
Cosmos 2112 Rocket 4.0 17:39:24 10° NNW 17:44:40 87° WSW 17:49:51 10° SSE
Cosmos 1689 Rocket 2.1 17:44:45 49° E 17:44:50 49° E 17:47:36 10° S
CZ-2C R/B 3.4 17:44:02 10° S 17:49:24 75° WSW 17:55:07 10° NNW
NOSS 2-1 (C) 3.2 17:48:39 10° SW 17:51:58 61° NW 17:53:29 29° NNE
OE (NEXTSAT) 4.2 17:50:03 10° W 17:53:30 82° S 17:54:20 49° ESE
CZ-2C R/B 3.3 17:51:11 22° NE 17:54:02 35° E 17:59:07 10° SSE
COSMO-SKYMED 1 3.4 17:52:02 10° N 17:56:16 52° WNW 18:00:29 10° SSW
MOS 1 Rocket 3.4 17:52:16 10° N 17:56:31 65° WNW 18:00:47 10° SSW
CZ-4 R/B 1.4 17:53:44 10° S 17:57:48 81° WSW 18:01:49 10° NNW
USA 229 DEB 3.8 17:50:30 10° NW 17:57:51 76° NE 18:05:34 10° SE
NOSS 2-1 (D) 3.5 17:54:37 10° SW 17:57:53 52° NW 17:59:15 30° NNE
USA 229 3.8 17:50:37 10° NW 17:57:56 75° NE 18:05:39 10° SE
Cosmos 990 Rocket 4.3 17:53:20 10° SSW 17:58:31 65° WNW 18:03:41 10° NNE
SAR-Lupe-4 3.4 17:59:25 23° NNE 18:01:33 90° WNW 18:05:07 10° SSW
Meteor 2-15 4.3 17:55:51 10° N 18:02:01 69° E 18:08:07 10° SSE
Cosmos 1758 Rocket 3.4 17:57:43 10° S 18:02:08 73° E 18:06:27 11° NNE
Meteor 2-8 Rocket 4.5 17:57:06 10° N 18:03:14 84° W 18:09:21 10° S
Cosmos 2344 4.3 17:54:23 10° NW 18:03:43 75° NE 18:16:47 10° SE
Cosmos 2026 Rocket 4.0 18:02:01 10° S 18:08:09 86° W 18:14:25 10° N
CSL-04 Debris 4.0 18:03:25 10° SSE 18:08:45 71° ENE 18:14:08 10° N
Cosmos-2242 2.8 18:05:43 10° N 18:10:00 75° E 18:14:19 10° SSE
Cosmos 1553 Rocket 3.9 18:06:25 10° N 18:12:49 68° E 18:19:07 10° SSE
Meteor 1-27 4.1 18:07:16 10° N 18:12:50 60° ENE 18:18:19 10° SSE
NOSS 3-1 (A) 4.0 18:05:54 10° NW 18:13:27 81° NE 18:21:27 13° SE
PSLV R/B 4.4 18:12:01 10° N 18:16:12 61° WNW 18:20:20 10° SSW
Cosmos 1833 Rocket 2.5 18:10:48 10° NNW 18:16:27 76° ENE 18:20:06 23° SSE
CZ-4C R/B 4.5 18:13:10 10° NNW 18:16:44 15° N 18:19:07 13° NNE
USA 290 4.4 18:14:05 10° NNW 18:14:58 17° NNW 18:14:58 17° NNW
COSMOS 2406 3.2 18:14:15 10° NNW 18:20:04 89° WSW 18:25:36 11° SSE
YAOGAN 1 3.4 18:19:35 10° S 18:23:48 51° W 18:28:02 10° NNW
Cosmos 1655 Rocket 4.0 18:23:17 10° SSE 18:29:19 55° E 18:31:20 39° NE
Cosmos 2082 Rocket 2.2 18:24:04 10° NNW 18:29:43 55° ENE 18:29:43 55° ENE
Cosmos 405 4.3 18:26:36 10° NNW 18:29:56 40° W 18:33:14 10° SSW
Iridium 4 Rocket 4.3 18:25:30 10° NNW 18:30:49 52° W 18:35:41 10° SSW
SJ 16-02 4.1 18:28:20 10° W 18:30:55 15° NW 18:33:31 10° NNW
Okean-O 3.9 18:28:30 10° S 18:32:41 40° W 18:36:54 10° NNW
USA 234 4.0 18:32:17 33° NE 18:33:35 36° NNE 18:39:26 10° NW
Meteor 2-15 Rocket 4.4 18:27:26 10° N 18:33:38 88° W 18:39:48 10° S
Cosmos 1346 Rocket 3.1 18:30:36 10° SSW 18:34:01 61° SW 18:34:01 61° SW
Cosmos 1825 Rocket 3.8 18:31:12 10° SSW 18:35:32 68° W 18:36:58 41° N
S3M 3.8 18:31:25 10° N 18:37:32 72° E 18:42:03 19° SSE
Aureole 3 Rocket 4.4 18:34:44 10° NNW 18:37:34 30° W 18:40:53 10° SSW
ISS -1.4 18:35:26 10° WNW 18:37:00 20° NW 18:37:00 20° NW
CSL-04 Rocket 4.4 18:48:32 10° S 18:53:49 53° W 18:59:12 10° NNW
Cosmos 2278 Rocket 2.5 18:50:07 10° SW 18:55:44 62° WNW 18:57:16 45° N
Cosmos 372 Rocket 4.4 18:53:22 10° SSW 18:58:30 61° WNW 18:59:05 56° NW
H-2A R/B 3.9 18:56:09 10° SSW 19:00:29 29° W 19:04:56 10° NW
X-37B 4.1 19:05:47 10° W 19:06:03 12° W 19:06:03 12° W
CZ-2C R/B 4.0 19:32:40 31° NNW 19:34:19 37° WNW 19:39:26 10° SW
Cosmos 2082 Rocket 4.4 20:08:53 10° NW 20:11:37 21° WNW 20:11:37 21° WNW
